STARLINK-35665

Last updated on Wed Dec 10 2025 00:02:05 GMT+0000 (Coordinated Universal Time)

1 66390U 25257L 25343.53304196 .00158570 00000+0 27953-2 0 9996 2 66390 53.1590 279.0799 0001483 79.5180 280.5996 15.49373285 5986
UTC large
Height (km)
Speed (km/s)
/
Latitude / Longitude
Inclination (degrees)
Orbital Period (minutes)
Azimuth
Elevation
Range (km)
Doppler Factor

Next 0 passes for location: London (51.5072 / 0.1276)

Sorry there are no passes over London.